KA3MCG-13 Weather Reports


time (UTC)temp
C
wind
direction
speed
KPH
gust
KPH
rain 1hr
cm
rain 24hr
cm
rain mn
cm
humidity
%
barometer
mb
20260506073016 19 293 1.6 8.0 0.00 0.00 0.00 58 1007.4
20260506043016 21 248 3.2 20.9 0.00 0.00 0.00 45 1008.9
20260506040016 22 248 3.2 12.9 0.00 0.00 0.00 43 1008.7
20260506033015 21 248 3.2 14.5 0.00 0.00 0.00 43 1008.8
20260506030017 21 225 3.2 11.3 0.00 0.00 0.00 42 1008.6
20260506023037 22 248 3.2 9.7 0.00 0.00 0.00 38 1009.0
20260506020037 22 248 3.2 17.7 0.00 0.00 0.00 37 1009.0
20260506013017 22 225 3.2 9.7 0.00 0.03 0.00 37 1008.5
20260506010017 23 225 3.2 14.5 0.00 0.03 0.00 36 1008.2
20260506003017 23 180 1.6 17.7 0.00 0.03 0.00 38 1007.7
20260506000022 24 225 4.8 16.1 0.00 0.03 0.00 35 1007.6
20260505233037 25 248 4.8 17.7 0.00 0.03 0.00 36 1007.4
20260505230037 25 225 4.8 17.7 0.00 0.03 0.00 36 1007.4
20260505223017 25 225 4.8 19.3 0.00 0.03 0.00 35 1007.4
20260505220017 26 225 4.8 20.9 0.00 0.03 0.00 36 1007.7
20260505213017 27 225 6.4 19.3 0.00 0.03 0.00 35 1007.3
20260505210017 27 248 6.4 19.3 0.00 0.03 0.00 31 1007.2
20260505203017 27 248 6.4 22.5 0.00 0.03 0.00 37 1007.2
20260505200017 27 225 6.4 24.1 0.00 0.03 0.00 36 1007.4
20260505193017 27 270 4.8 22.5 0.00 0.03 0.00 39 1007.7
20260505190017 27 225 6.4 27.4 0.00 0.03 0.00 37 1008.0
20260505183037 27 248 4.8 19.3 0.00 0.03 0.00 38 1008.4
20260505180037 26 270 6.4 22.5 0.00 0.03 0.00 39 1008.6
20260505173017 26 225 6.4 32.2 0.00 0.03 0.00 39 1009.0
20260505170017 26 248 6.4 27.4 0.00 0.03 0.00 40 1009.4
20260505163016 25 225 6.4 20.9 0.00 0.03 0.00 41 1009.7
20260505153016 25 225 8.0 25.7 0.00 0.03 0.00 44 1010.2
20260505123017 20 203 3.2 9.7 0.00 0.03 0.00 54 1010.8
20260505120016 19 158 3.2 9.7 0.00 0.03 0.00 55 1010.7
20260505113016 18 158 1.6 8.0 0.00 0.03 0.00 57 1010.4
20260505100016 19 225 4.8 20.9 0.00 0.03 0.00 53 1009.7
20260505093016 19 225 4.8 19.3 0.00 0.03 0.00 53 1009.7
20260505090018 19 248 3.2 20.9 0.00 0.03 0.00 54 1009.6
20260505083016 19 248 3.2 12.9 0.00 0.03 0.00 54 1009.5